• In Uzbekistan
  • List of Countries
  • For 7 days
  • Water Temperature
  • Satellite Maps
  • Weather Map
  • Weather Widgets
  • user-avatar
    Login

    Hourly Weather Laksau

    Today, 18 July, Wednesday

    Time Temperature Precipitation Wind Pressure Humidity
    00:00 +21°C° 0.3 mm 0 mps 695 mmHg 98%
    01:00 +21°C° 0 mm 0 mps 695 mmHg 99%
    02:00 +21°C° 0.1 mm 0 mps 695 mmHg 98%
    03:00 +23°C° 0.1 mm 1 mps 695 mmHg 98%
    04:00 +23°C° 0.1 mm 1 mps 695 mmHg 98%
    05:00 +23°C° 0.1 mm 1 mps 695 mmHg 98%
    06:00 +24°C° 0.1 mm 1 mps 695 mmHg 97%
    07:00 +24°C° 0.1 mm 1 mps 696 mmHg 97%
    08:00 +25°C° 0.6 mm 1 mps 696 mmHg 94%
    09:00 +26°C° 0.6 mm 1 mps 696 mmHg 91%
    10:00 +27°C° 0.6 mm 1 mps 696 mmHg 88%
    11:00 +26°C° 2.5 mm 1 mps 695 mmHg 90%
    12:00 +26°C° 2.5 mm 1 mps 695 mmHg 92%
    13:00 +26°C° 2.5 mm 1 mps 695 mmHg 95%
    14:00 +26°C° 0.7 mm 1 mps 694 mmHg 94%
    15:00 +26°C° 0.7 mm 1 mps 694 mmHg 93%
    16:00 +26°C° 0.7 mm 1 mps 693 mmHg 93%
    17:00 +26°C° 0.9 mm 1 mps 693 mmHg 95%
    18:00 +25°C° 0.9 mm 1 mps 693 mmHg 96%
    19:00 +24°C° 0.9 mm 1 mps 693 mmHg 98%
    20:00 +24°C° 5.5 mm 1 mps 693 mmHg 98%
    21:00 +24°C° 5.5 mm 1 mps 693 mmHg 98%
    22:00 +24°C° 5.5 mm 1 mps 693 mmHg 98%
    23:00 +24°C° 13.4 mm 1 mps 693 mmHg 98%

    Tomorrow, 19 July, Thursday

    Time Temperature Precipitation Wind Pressure Humidity
    00:00 +24°C° 13.4 mm 1 mps 693 mmHg 98%
    01:00 +24°C° 13.4 mm 1 mps 692 mmHg 98%
    02:00 +24°C° 9.6 mm 1 mps 692 mmHg 98%
    03:00 +24°C° 9.6 mm 2 mps 692 mmHg 98%
    04:00 +24°C° 9.6 mm 2 mps 692 mmHg 98%
    05:00 +24°C° 10.5 mm 2 mps 692 mmHg 98%
    06:00 +24°C° 10.5 mm 2 mps 692 mmHg 98%
    07:00 +24°C° 10.5 mm 3 mps 693 mmHg 98%
    08:00 +24°C° 6.6 mm 3 mps 693 mmHg 98%
    09:00 +24°C° 6.6 mm 3 mps 694 mmHg 98%
    10:00 +22°C° 6.6 mm 3 mps 694 mmHg 98%
    11:00 +22°C° 2.5 mm 3 mps 694 mmHg 98%
    12:00 +22°C° 2.5 mm 3 mps 694 mmHg 98%
    13:00 +22°C° 2.5 mm 3 mps 694 mmHg 98%
    14:00 +23°C° 1.2 mm 2 mps 694 mmHg 98%
    15:00 +24°C° 1.2 mm 2 mps 694 mmHg 98%
    16:00 +24°C° 1.2 mm 2 mps 694 mmHg 98%
    17:00 +24°C° 0.9 mm 2 mps 695 mmHg 98%
    18:00 +24°C° 0.9 mm 2 mps 695 mmHg 98%
    19:00 +23°C° 0.9 mm 2 mps 695 mmHg 98%
    20:00 +23°C° 1.1 mm 1 mps 696 mmHg 97%
    21:00 +23°C° 1.1 mm 1 mps 697 mmHg 97%
    22:00 +23°C° 1.1 mm 1 mps 697 mmHg 97%
    23:00 +23°C° 1.4 mm 1 mps 697 mmHg 97%

    Day after tomorrow, 20 July, Friday

    Time Temperature Precipitation Wind Pressure Humidity
    00:00 +23°C° 1.4 mm 1 mps 697 mmHg 97%
    01:00 +23°C° 1.4 mm 1 mps 697 mmHg 98%
    02:00 +23°C° 1.3 mm 1 mps 697 mmHg 98%
    03:00 +23°C° 1.3 mm 2 mps 697 mmHg 98%
    04:00 +23°C° 1.3 mm 2 mps 696 mmHg 98%
    05:00 +23°C° 0.6 mm 2 mps 697 mmHg 98%
    06:00 +23°C° 0.6 mm 1 mps 697 mmHg 98%
    07:00 +23°C° 0.6 mm 1 mps 697 mmHg 97%
    08:00 +24°C° 0.4 mm 1 mps 698 mmHg 97%
    09:00 +24°C° 0.4 mm 1 mps 698 mmHg 96%
    10:00 +24°C° 0.4 mm 1 mps 698 mmHg 95%
    11:00 +24°C° 0.3 mm 1 mps 698 mmHg 94%
    12:00 +25°C° 0.3 mm 1 mps 698 mmHg 93%
    13:00 +25°C° 0.3 mm 1 mps 697 mmHg 93%
    14:00 +26°C° 0.3 mm 1 mps 697 mmHg 92%
    15:00 +26°C° 0.3 mm 1 mps 697 mmHg 91%
    16:00 +26°C° 0.3 mm 1 mps 696 mmHg 90%
    17:00 +26°C° 0.5 mm 1 mps 697 mmHg 92%
    18:00 +25°C° 0.5 mm 1 mps 697 mmHg 93%
    19:00 +24°C° 0.5 mm 1 mps 697 mmHg 95%
    20:00 +24°C° 0.9 mm 1 mps 698 mmHg 96%
    21:00 +24°C° 0.9 mm 1 mps 698 mmHg 96%
    22:00 +24°C° 0.9 mm 1 mps 699 mmHg 96%
    23:00 +24°C° 1 mm 1 mps 699 mmHg 96%

    21 July, Saturday

    Time Temperature Precipitation Wind Pressure Humidity
    00:00 +24°C° 1 mm 1 mps 698 mmHg 97%
    01:00 +24°C° 1 mm 1 mps 698 mmHg 97%
    02:00 +24°C° 0.3 mm 1 mps 698 mmHg 97%
    03:00 +23°C° 0.3 mm 1 mps 697 mmHg 97%
    04:00 +23°C° 0.3 mm 1 mps 697 mmHg 97%
    05:00 +24°C° 0.1 mm 1 mps 697 mmHg 97%
    06:00 +24°C° 0.1 mm 1 mps 698 mmHg 97%
    07:00 +24°C° 0.1 mm 1 mps 698 mmHg 96%
    08:00 +25°C° 0.1 mm 1 mps 699 mmHg 92%
    09:00 +26°C° 0.1 mm 1 mps 699 mmHg 87%
    10:00 +27°C° 0.1 mm 1 mps 699 mmHg 82%
    11:00 +28°C° 0.3 mm 2 mps 699 mmHg 80%
    12:00 +28°C° 0.3 mm 2 mps 698 mmHg 77%
    13:00 +29°C° 0.3 mm 2 mps 698 mmHg 75%
    14:00 +29°C° 0.3 mm 1 mps 697 mmHg 76%
    15:00 +29°C° 0.3 mm 1 mps 697 mmHg 77%
    16:00 +28°C° 0.3 mm 1 mps 697 mmHg 78%
    17:00 +27°C° 0.3 mm 1 mps 697 mmHg 83%
    18:00 +26°C° 0.3 mm 1 mps 697 mmHg 88%
    19:00 +25°C° 0.3 mm 1 mps 697 mmHg 93%
    20:00 +25°C° 0.1 mm 1 mps 698 mmHg 94%
    21:00 +24°C° 0.1 mm 1 mps 698 mmHg 94%
    22:00 +24°C° 0.1 mm 1 mps 699 mmHg 95%
    23:00 +24°C° 0.2 mm 1 mps 698 mmHg 95%

    22 July, Sunday

    Time Temperature Precipitation Wind Pressure Humidity
    00:00 +24°C° 0.2 mm 1 mps 698 mmHg 95%
    01:00 +24°C° 0.2 mm 1 mps 698 mmHg 95%
    02:00 +24°C° 0.2 mm 1 mps 697 mmHg 95%
    03:00 +24°C° 0.2 mm 1 mps 697 mmHg 95%
    04:00 +23°C° 0.2 mm 1 mps 697 mmHg 95%
    05:00 +24°C° 0.1 mm 1 mps 697 mmHg 95%
    06:00 +24°C° 0.1 mm 1 mps 697 mmHg 94%
    07:00 +24°C° 0.1 mm 1 mps 698 mmHg 94%
    08:00 +25°C° 0.1 mm 1 mps 698 mmHg 89%
    09:00 +26°C° 0.1 mm 2 mps 698 mmHg 85%
    10:00 +27°C° 0.1 mm 2 mps 699 mmHg 80%
    11:00 +27°C° 0.2 mm 2 mps 698 mmHg 80%
    12:00 +28°C° 0.2 mm 2 mps 698 mmHg 79%
    13:00 +28°C° 0.2 mm 2 mps 697 mmHg 78%
    14:00 +28°C° 0.2 mm 2 mps 697 mmHg 79%
    15:00 +28°C° 0.2 mm 2 mps 696 mmHg 81%
    16:00 +27°C° 0.2 mm 2 mps 696 mmHg 83%
    17:00 +27°C° 0.2 mm 2 mps 696 mmHg 86%
    18:00 +26°C° 0.2 mm 2 mps 696 mmHg 89%
    19:00 +25°C° 0.2 mm 1 mps 696 mmHg 93%
    20:00 +25°C° 0.4 mm 1 mps 696 mmHg 93%
    21:00 +25°C° 0.4 mm 2 mps 697 mmHg 93%
    22:00 +24°C° 0.4 mm 2 mps 697 mmHg 94%
    23:00 +24°C° 0.5 mm 2 mps 697 mmHg 94%

    23 July, Monday

    Time Temperature Precipitation Wind Pressure Humidity
    00:00 +24°C° 0.5 mm 2 mps 696 mmHg 94%
    01:00 +24°C° 0.5 mm 2 mps 696 mmHg 94%
    02:00 +24°C° 0.3 mm 2 mps 696 mmHg 94%
    03:00 +24°C° 0.3 mm 2 mps 696 mmHg 94%
    04:00 +24°C° 0.3 mm 2 mps 695 mmHg 94%
    05:00 +24°C° 0.2 mm 2 mps 696 mmHg 94%
    06:00 +24°C° 0.2 mm 2 mps 696 mmHg 95%
    07:00 +24°C° 0.2 mm 2 mps 697 mmHg 95%
    08:00 +24°C° 0.7 mm 2 mps 697 mmHg 95%
    09:00 +24°C° 0.7 mm 2 mps 697 mmHg 94%
    10:00 +24°C° 0.7 mm 2 mps 697 mmHg 94%
    11:00 +24°C° 1.3 mm 2 mps 697 mmHg 95%
    12:00 +24°C° 1.3 mm 2 mps 697 mmHg 95%
    13:00 +24°C° 1.3 mm 2 mps 696 mmHg 96%
    14:00 +24°C° 0.3 mm 2 mps 696 mmHg 95%
    15:00 +24°C° 0.3 mm 2 mps 695 mmHg 93%
    16:00 +25°C° 0.3 mm 2 mps 695 mmHg 92%
    17:00 +25°C° 0.2 mm 2 mps 695 mmHg 93%
    18:00 +24°C° 0.2 mm 1 mps 695 mmHg 94%
    19:00 +24°C° 0.2 mm 1 mps 695 mmHg 95%
    20:00 +24°C° 0.5 mm 2 mps 695 mmHg 95%
    21:00 +24°C° 0.5 mm 2 mps 696 mmHg 95%
    22:00 +24°C° 0.5 mm 2 mps 696 mmHg 95%
    23:00 +24°C° 0.9 mm 2 mps 696 mmHg 95%
    Show more